owner,sensor,date,latitude,longitude,vertical_datum,sea_water_temperature,qcFlag 
SCCF RECON,ioos:station:SCCF:18:1,2014-05-01T00:00:00Z,26.6955,-81.8138,1.49,31.31,2 
SCCF RECON,ioos:station:SCCF:18:1,2014-05-01T01:00:00Z,26.6955,-81.8138,1.49,31.16,2 
SCCF RECON,ioos:station:SCCF:18:1,2014-05-01T02:00:00Z,26.6955,-81.8138,1.49,31.32,2 
SCCF RECON,ioos:station:SCCF:18:1,2014-05-01T03:00:00Z,26.6955,-81.8138,1.49,31.5,2 
SCCF RECON,ioos:station:SCCF:18:1,2014-05-01T04:00:00Z,26.6955,-81.8138,1.49,31.17,2 
SCCF RECON,ioos:station:SCCF:18:1,2014-05-01T05:00:00Z,26.6955,-81.8138,1.49,30.81,2 
SCCF RECON,ioos:station:SCCF:18:1,2014-05-01T06:00:00Z,26.6955,-81.8138,1.49,30.63,2 
SCCF RECON,ioos:station:SCCF:18:1,2014-05-01T07:00:00Z,26.6955,-81.8138,1.49,30.5,2 
SCCF RECON,ioos:station:SCCF:18:1,2014-05-01T08:00:00Z,26.6955,-81.8138,1.49,30.22,2 
SCCF RECON,ioos:station:SCCF:18:1,2014-05-01T09:00:00Z,26.6955,-81.8138,1.49,29.61,2 
SCCF RECON,ioos:station:SCCF:18:1,2014-05-01T10:00:00Z,26.6955,-81.8138,1.49,29.94,2 
SCCF RECON,ioos:station:SCCF:18:1,2014-05-01T11:00:00Z,26.6955,-81.8138,1.49,29.59,2 
SCCF RECON,ioos:station:SCCF:18:1,2014-05-01T12:00:00Z,26.6955,-81.8138,1.49,29.73,2 
SCCF RECON,ioos:station:SCCF:18:1,2014-05-01T13:00:00Z,26.6955,-81.8138,1.49,29.35,2 
SCCF RECON,ioos:station:SCCF:18:1,2014-05-01T14:00:00Z,26.6955,-81.8138,1.49,29.87,2 
SCCF RECON,ioos:station:SCCF:18:1,2014-05-01T15:00:00Z,26.6955,-81.8138,1.49,30.2,2 
SCCF RECON,ioos:station:SCCF:18:1,2014-05-01T16:00:00Z,26.6955,-81.8138,1.49,30.09,2 
SCCF RECON,ioos:station:SCCF:18:1,2014-05-01T17:00:00Z,26.6955,-81.8138,1.49,30.27,2 
SCCF RECON,ioos:station:SCCF:18:1,2014-05-01T18:00:00Z,26.6955,-81.8138,1.49,30.36,2 
SCCF RECON,ioos:station:SCCF:18:1,2014-05-01T19:00:00Z,26.6955,-81.8138,1.49,30.01,2 
SCCF RECON,ioos:station:SCCF:18:1,2014-05-01T20:00:00Z,26.6955,-81.8138,1.49,30.18,2 
SCCF RECON,ioos:station:SCCF:18:1,2014-05-01T21:00:00Z,26.6955,-81.8138,1.49,30.29,2 
SCCF RECON,ioos:station:SCCF:18:1,2014-05-01T22:00:00Z,26.6955,-81.8138,1.49,30.36,2 
SCCF RECON,ioos:station:SCCF:18:1,2014-05-01T23:00:00Z,26.6955,-81.8138,1.49,30.32,2 
SCCF RECON,ioos:station:SCCF:18:1,2014-05-02T00:00:00Z,26.6955,-81.8138,1.49,30.46,2 
SCCF RECON,ioos:station:SCCF:18:1,2014-05-02T01:00:00Z,26.6955,-81.8138,1.49,30.58,2 
SCCF RECON,ioos:station:SCCF:18:1,2014-05-02T02:00:00Z,26.6955,-81.8138,1.49,30.79,2 
SCCF RECON,ioos:station:SCCF:18:1,2014-05-02T03:00:00Z,26.6955,-81.8138,1.49,31.11,2 
SCCF RECON,ioos:station:SCCF:18:1,2014-05-02T04:00:00Z,26.6955,-81.8138,1.49,31.13,2 
SCCF RECON,ioos:station:SCCF:18:1,2014-05-02T05:00:00Z,26.6955,-81.8138,1.49,31.39,2 
SCCF RECON,ioos:station:SCCF:18:1,2014-05-02T06:00:00Z,26.6955,-81.8138,1.49,31.49,2 
SCCF RECON,ioos:station:SCCF:18:1,2014-05-02T07:00:00Z,26.6955,-81.8138,1.49,31.13,2 
SCCF RECON,ioos:station:SCCF:18:1,2014-05-02T08:00:00Z,26.6955,-81.8138,1.49,30.63,2 
SCCF RECON,ioos:station:SCCF:18:1,2014-05-02T09:00:00Z,26.6955,-81.8138,1.49,30.39,2 
SCCF RECON,ioos:station:SCCF:18:1,2014-05-02T10:00:00Z,26.6955,-81.8138,1.49,30.19,2 
SCCF RECON,ioos:station:SCCF:18:1,2014-05-02T11:00:00Z,26.6955,-81.8138,1.49,30.22,2 
SCCF RECON,ioos:station:SCCF:18:1,2014-05-02T12:00:00Z,26.6955,-81.8138,1.49,30.2,2 
SCCF RECON,ioos:station:SCCF:18:1,2014-05-02T13:00:00Z,26.6955,-81.8138,1.49,30.02,2 
SCCF RECON,ioos:station:SCCF:18:1,2014-05-02T14:00:00Z,26.6955,-81.8138,1.49,30.12,2 
SCCF RECON,ioos:station:SCCF:18:1,2014-05-02T15:00:00Z,26.6955,-81.8138,1.49,30.04,2 
SCCF RECON,ioos:station:SCCF:18:1,2014-05-02T16:00:00Z,26.6955,-81.8138,1.49,30.22,2 
SCCF RECON,ioos:station:SCCF:18:1,2014-05-02T17:00:00Z,26.6955,-81.8138,1.49,30.33,2 
SCCF RECON,ioos:station:SCCF:18:1,2014-05-02T18:00:00Z,26.6955,-81.8138,1.49,29.95,2 
SCCF RECON,ioos:station:SCCF:18:1,2014-05-02T19:00:00Z,26.6955,-81.8138,1.49,29.79,2 
SCCF RECON,ioos:station:SCCF:18:1,2014-05-02T20:00:00Z,26.6955,-81.8138,1.49,29.67,2 
SCCF RECON,ioos:station:SCCF:18:1,2014-05-02T21:00:00Z,26.6955,-81.8138,1.49,29.58,2 
SCCF RECON,ioos:station:SCCF:18:1,2014-05-02T22:00:00Z,26.6955,-81.8138,1.49,29.53,2 
SCCF RECON,ioos:station:SCCF:18:1,2014-05-02T23:00:00Z,26.6955,-81.8138,1.49,29.31,2 
SCCF RECON,ioos:station:SCCF:18:1,2014-05-03T00:00:00Z,26.6955,-81.8138,1.49,29.25,2 
SCCF RECON,ioos:station:SCCF:18:1,2014-05-03T01:00:00Z,26.6955,-81.8138,1.49,29.69,2 
SCCF RECON,ioos:station:SCCF:18:1,2014-05-03T02:00:00Z,26.6955,-81.8138,1.49,29.79,2 
SCCF RECON,ioos:station:SCCF:18:1,2014-05-03T03:00:00Z,26.6955,-81.8138,1.49,30.23,2 
SCCF RECON,ioos:station:SCCF:18:1,2014-05-03T04:00:00Z,26.6955,-81.8138,1.49,30.49,2 
SCCF RECON,ioos:station:SCCF:18:1,2014-05-03T05:00:00Z,26.6955,-81.8138,1.49,30.27,2 
SCCF RECON,ioos:station:SCCF:18:1,2014-05-03T06:00:00Z,26.6955,-81.8138,1.49,30.44,2 
SCCF RECON,ioos:station:SCCF:18:1,2014-05-03T07:00:00Z,26.6955,-81.8138,1.49,30.37,2 
SCCF RECON,ioos:station:SCCF:18:1,2014-05-03T08:00:00Z,26.6955,-81.8138,1.49,30.34,2 
SCCF RECON,ioos:station:SCCF:18:1,2014-05-03T09:00:00Z,26.6955,-81.8138,1.49,29.75,2 
SCCF RECON,ioos:station:SCCF:18:1,2014-05-03T10:00:00Z,26.6955,-81.8138,1.49,29.64,2 
SCCF RECON,ioos:station:SCCF:18:1,2014-05-03T11:00:00Z,26.6955,-81.8138,1.49,29.48,2 
SCCF RECON,ioos:station:SCCF:18:1,2014-05-03T12:00:00Z,26.6955,-81.8138,1.49,29.46,2 
SCCF RECON,ioos:station:SCCF:18:1,2014-05-03T13:00:00Z,26.6955,-81.8138,1.49,29.29,2 
SCCF RECON,ioos:station:SCCF:18:1,2014-05-03T14:00:00Z,26.6955,-81.8138,1.49,29.35,2 
SCCF RECON,ioos:station:SCCF:18:1,2014-05-03T15:00:00Z,26.6955,-81.8138,1.49,29.29,2 
SCCF RECON,ioos:station:SCCF:18:1,2014-05-03T16:00:00Z,26.6955,-81.8138,1.49,29.44,2 
SCCF RECON,ioos:station:SCCF:18:1,2014-05-03T17:00:00Z,26.6955,-81.8138,1.49,29.58,2 
SCCF RECON,ioos:station:SCCF:18:1,2014-05-03T18:00:00Z,26.6955,-81.8138,1.49,28.96,2 
SCCF RECON,ioos:station:SCCF:18:1,2014-05-03T19:00:00Z,26.6955,-81.8138,1.49,28.56,2 
SCCF RECON,ioos:station:SCCF:18:1,2014-05-03T20:00:00Z,26.6955,-81.8138,1.49,28.47,2 
SCCF RECON,ioos:station:SCCF:18:1,2014-05-03T21:00:00Z,26.6955,-81.8138,1.49,28.2,2 
SCCF RECON,ioos:station:SCCF:18:1,2014-05-03T22:00:00Z,26.6955,-81.8138,1.49,28.05,2 
SCCF RECON,ioos:station:SCCF:18:1,2014-05-03T23:00:00Z,26.6955,-81.8138,1.49,27.96,2 
SCCF RECON,ioos:station:SCCF:18:1,2014-05-04T00:00:00Z,26.6955,-81.8138,1.49,28.14,2 
SCCF RECON,ioos:station:SCCF:18:1,2014-05-04T01:00:00Z,26.6955,-81.8138,1.49,28.72,2 
SCCF RECON,ioos:station:SCCF:18:1,2014-05-04T02:00:00Z,26.6955,-81.8138,1.49,28.83,2 
SCCF RECON,ioos:station:SCCF:18:1,2014-05-04T03:00:00Z,26.6955,-81.8138,1.49,28.86,2 
SCCF RECON,ioos:station:SCCF:18:1,2014-05-04T04:00:00Z,26.6955,-81.8138,1.49,29.14,2 
SCCF RECON,ioos:station:SCCF:18:1,2014-05-04T05:00:00Z,26.6955,-81.8138,1.49,28.97,2 
SCCF RECON,ioos:station:SCCF:18:1,2014-05-04T06:00:00Z,26.6955,-81.8138,1.49,29.05,2 
SCCF RECON,ioos:station:SCCF:18:1,2014-05-04T07:00:00Z,26.6955,-81.8138,1.49,28.98,2 
SCCF RECON,ioos:station:SCCF:18:1,2014-05-04T08:00:00Z,26.6955,-81.8138,1.49,28.45,2 
SCCF RECON,ioos:station:SCCF:18:1,2014-05-04T09:00:00Z,26.6955,-81.8138,1.49,28.72,2 
SCCF RECON,ioos:station:SCCF:18:1,2014-05-04T10:00:00Z,26.6955,-81.8138,1.49,28.6,2 
SCCF RECON,ioos:station:SCCF:18:1,2014-05-04T11:00:00Z,26.6955,-81.8138,1.49,28.3,2 
SCCF RECON,ioos:station:SCCF:18:1,2014-05-04T12:00:00Z,26.6955,-81.8138,1.49,28.17,2 
SCCF RECON,ioos:station:SCCF:18:1,2014-05-04T13:00:00Z,26.6955,-81.8138,1.49,28.13,2 
SCCF RECON,ioos:station:SCCF:18:1,2014-05-04T14:00:00Z,26.6955,-81.8138,1.49,27.94,2 
SCCF RECON,ioos:station:SCCF:18:1,2014-05-04T15:00:00Z,26.6955,-81.8138,1.49,27.95,2 
SCCF RECON,ioos:station:SCCF:18:1,2014-05-04T16:00:00Z,26.6955,-81.8138,1.49,28.39,2 
SCCF RECON,ioos:station:SCCF:18:1,2014-05-04T17:00:00Z,26.6955,-81.8138,1.49,28.36,2 
SCCF RECON,ioos:station:SCCF:18:1,2014-05-04T18:00:00Z,26.6955,-81.8138,1.49,28.88,2 
SCCF RECON,ioos:station:SCCF:18:1,2014-05-04T19:00:00Z,26.6955,-81.8138,1.49,28.83,2 
SCCF RECON,ioos:station:SCCF:18:1,2014-05-04T20:00:00Z,26.6955,-81.8138,1.49,28.98,2 
SCCF RECON,ioos:station:SCCF:18:1,2014-05-04T21:00:00Z,26.6955,-81.8138,1.49,28.99,2 
SCCF RECON,ioos:station:SCCF:18:1,2014-05-04T22:00:00Z,26.6955,-81.8138,1.49,29.2,2 
SCCF RECON,ioos:station:SCCF:18:1,2014-05-04T23:00:00Z,26.6955,-81.8138,1.49,29.0,2 
SCCF RECON,ioos:station:SCCF:18:1,2014-05-05T00:00:00Z,26.6955,-81.8138,1.49,28.87,2 
SCCF RECON,ioos:station:SCCF:18:1,2014-05-05T01:00:00Z,26.6955,-81.8138,1.49,28.78,2 
SCCF RECON,ioos:station:SCCF:18:1,2014-05-05T02:00:00Z,26.6955,-81.8138,1.49,28.98,2 
SCCF RECON,ioos:station:SCCF:18:1,2014-05-05T03:00:00Z,26.6955,-81.8138,1.49,29.1,2 
SCCF RECON,ioos:station:SCCF:18:1,2014-05-05T04:00:00Z,26.6955,-81.8138,1.49,28.85,2 
SCCF RECON,ioos:station:SCCF:18:1,2014-05-05T05:00:00Z,26.6955,-81.8138,1.49,28.64,2 
SCCF RECON,ioos:station:SCCF:18:1,2014-05-05T06:00:00Z,26.6955,-81.8138,1.49,28.7,2 
SCCF RECON,ioos:station:SCCF:18:1,2014-05-05T07:00:00Z,26.6955,-81.8138,1.49,28.83,2 
SCCF RECON,ioos:station:SCCF:18:1,2014-05-05T08:00:00Z,26.6955,-81.8138,1.49,28.76,2 
SCCF RECON,ioos:station:SCCF:18:1,2014-05-05T09:00:00Z,26.6955,-81.8138,1.49,28.9,2 
SCCF RECON,ioos:station:SCCF:18:1,2014-05-05T10:00:00Z,26.6955,-81.8138,1.49,28.48,2 
SCCF RECON,ioos:station:SCCF:18:1,2014-05-05T11:00:00Z,26.6955,-81.8138,1.49,28.1,2 
SCCF RECON,ioos:station:SCCF:18:1,2014-05-05T12:00:00Z,26.6955,-81.8138,1.49,27.73,2 
SCCF RECON,ioos:station:SCCF:18:1,2014-05-05T13:00:00Z,26.6955,-81.8138,1.49,27.5,2 
SCCF RECON,ioos:station:SCCF:18:1,2014-05-05T14:00:00Z,26.6955,-81.8138,1.49,27.39,2 
SCCF RECON,ioos:station:SCCF:18:1,2014-05-05T15:00:00Z,26.6955,-81.8138,1.49,28.01,2 
SCCF RECON,ioos:station:SCCF:18:1,2014-05-05T16:00:00Z,26.6955,-81.8138,1.49,28.36,2 
SCCF RECON,ioos:station:SCCF:18:1,2014-05-05T17:00:00Z,26.6955,-81.8138,1.49,28.64,2 
SCCF RECON,ioos:station:SCCF:18:1,2014-05-05T18:00:00Z,26.6955,-81.8138,1.49,29.2,2 
SCCF RECON,ioos:station:SCCF:18:1,2014-05-05T19:00:00Z,26.6955,-81.8138,1.49,29.81,2 
SCCF RECON,ioos:station:SCCF:18:1,2014-05-05T20:00:00Z,26.6955,-81.8138,1.49,29.71,2 
SCCF RECON,ioos:station:SCCF:18:1,2014-05-05T21:00:00Z,26.6955,-81.8138,1.49,29.66,2 
SCCF RECON,ioos:station:SCCF:18:1,2014-05-05T22:00:00Z,26.6955,-81.8138,1.49,29.73,2 
SCCF RECON,ioos:station:SCCF:18:1,2014-05-05T23:00:00Z,26.6955,-81.8138,1.49,30.22,2 
SCCF RECON,ioos:station:SCCF:18:1,2014-05-06T00:00:00Z,26.6955,-81.8138,1.49,29.9,2 
SCCF RECON,ioos:station:SCCF:18:1,2014-05-06T01:00:00Z,26.6955,-81.8138,1.49,29.9,2 
SCCF RECON,ioos:station:SCCF:18:1,2014-05-06T02:00:00Z,26.6955,-81.8138,1.49,29.7,2 
SCCF RECON,ioos:station:SCCF:18:1,2014-05-06T03:00:00Z,26.6955,-81.8138,1.49,29.84,2 
SCCF RECON,ioos:station:SCCF:18:1,2014-05-06T04:00:00Z,26.6955,-81.8138,1.49,29.84,2 
SCCF RECON,ioos:station:SCCF:18:1,2014-05-06T05:00:00Z,26.6955,-81.8138,1.49,30.08,2 
SCCF RECON,ioos:station:SCCF:18:1,2014-05-06T06:00:00Z,26.6955,-81.8138,1.49,29.65,2 
SCCF RECON,ioos:station:SCCF:18:1,2014-05-06T07:00:00Z,26.6955,-81.8138,1.49,29.5,2 
SCCF RECON,ioos:station:SCCF:18:1,2014-05-06T08:00:00Z,26.6955,-81.8138,1.49,29.59,2 
SCCF RECON,ioos:station:SCCF:18:1,2014-05-06T09:00:00Z,26.6955,-81.8138,1.49,29.48,2 
SCCF RECON,ioos:station:SCCF:18:1,2014-05-06T10:00:00Z,26.6955,-81.8138,1.49,29.38,2 
SCCF RECON,ioos:station:SCCF:18:1,2014-05-06T11:00:00Z,26.6955,-81.8138,1.49,28.99,2 
SCCF RECON,ioos:station:SCCF:18:1,2014-05-06T12:00:00Z,26.6955,-81.8138,1.49,28.2,2 
SCCF RECON,ioos:station:SCCF:18:1,2014-05-06T13:00:00Z,26.6955,-81.8138,1.49,28.23,2 
SCCF RECON,ioos:station:SCCF:18:1,2014-05-06T14:00:00Z,26.6955,-81.8138,1.49,28.14,2 
SCCF RECON,ioos:station:SCCF:18:1,2014-05-06T15:00:00Z,26.6955,-81.8138,1.49,27.94,2 
SCCF RECON,ioos:station:SCCF:18:1,2014-05-06T16:00:00Z,26.6955,-81.8138,1.49,28.49,2 
SCCF RECON,ioos:station:SCCF:18:1,2014-05-06T17:00:00Z,26.6955,-81.8138,1.49,28.98,2 
SCCF RECON,ioos:station:SCCF:18:1,2014-05-06T18:00:00Z,26.6955,-81.8138,1.49,28.79,2 
SCCF RECON,ioos:station:SCCF:18:1,2014-05-06T19:00:00Z,26.6955,-81.8138,1.49,29.83,2 
SCCF RECON,ioos:station:SCCF:18:1,2014-05-06T20:00:00Z,26.6955,-81.8138,1.49,30.35,2 
SCCF RECON,ioos:station:SCCF:18:1,2014-05-06T21:00:00Z,26.6955,-81.8138,1.49,30.45,2 
SCCF RECON,ioos:station:SCCF:18:1,2014-05-06T22:00:00Z,26.6955,-81.8138,1.49,30.12,2 
SCCF RECON,ioos:station:SCCF:18:1,2014-05-06T23:00:00Z,26.6955,-81.8138,1.49,30.55,2 
SCCF RECON,ioos:station:SCCF:18:1,2014-05-07T00:00:00Z,26.6955,-81.8138,1.49,30.23,2 
SCCF RECON,ioos:station:SCCF:18:1,2014-05-07T01:00:00Z,26.6955,-81.8138,1.49,30.21,2 
SCCF RECON,ioos:station:SCCF:18:1,2014-05-07T02:00:00Z,26.6955,-81.8138,1.49,30.12,2 
SCCF RECON,ioos:station:SCCF:18:1,2014-05-07T03:00:00Z,26.6955,-81.8138,1.49,30.09,2 
SCCF RECON,ioos:station:SCCF:18:1,2014-05-07T04:00:00Z,26.6955,-81.8138,1.49,30.49,2 
SCCF RECON,ioos:station:SCCF:18:1,2014-05-07T05:00:00Z,26.6955,-81.8138,1.49,30.43,2 
SCCF RECON,ioos:station:SCCF:18:1,2014-05-07T06:00:00Z,26.6955,-81.8138,1.49,30.19,2 
SCCF RECON,ioos:station:SCCF:18:1,2014-05-07T07:00:00Z,26.6955,-81.8138,1.49,29.87,2 
SCCF RECON,ioos:station:SCCF:18:1,2014-05-07T08:00:00Z,26.6955,-81.8138,1.49,29.67,2 
SCCF RECON,ioos:station:SCCF:18:1,2014-05-07T09:00:00Z,26.6955,-81.8138,1.49,29.48,2 
SCCF RECON,ioos:station:SCCF:18:1,2014-05-07T10:00:00Z,26.6955,-81.8138,1.49,29.42,2 
SCCF RECON,ioos:station:SCCF:18:1,2014-05-07T11:00:00Z,26.6955,-81.8138,1.49,29.26,2 
SCCF RECON,ioos:station:SCCF:18:1,2014-05-07T12:00:00Z,26.6955,-81.8138,1.49,29.13,2 
SCCF RECON,ioos:station:SCCF:18:1,2014-05-07T13:00:00Z,26.6955,-81.8138,1.49,28.87,2 
SCCF RECON,ioos:station:SCCF:18:1,2014-05-07T14:00:00Z,26.6955,-81.8138,1.49,28.98,2 
SCCF RECON,ioos:station:SCCF:18:1,2014-05-07T15:00:00Z,26.6955,-81.8138,1.49,28.79,2 
SCCF RECON,ioos:station:SCCF:18:1,2014-05-07T16:00:00Z,26.6955,-81.8138,1.49,29.07,2 
SCCF RECON,ioos:station:SCCF:18:1,2014-05-07T17:00:00Z,26.6955,-81.8138,1.49,29.65,2 
SCCF RECON,ioos:station:SCCF:18:1,2014-05-07T18:00:00Z,26.6955,-81.8138,1.49,29.88,2 
SCCF RECON,ioos:station:SCCF:18:1,2014-05-07T19:00:00Z,26.6955,-81.8138,1.49,30.08,2 
SCCF RECON,ioos:station:SCCF:18:1,2014-05-07T20:00:00Z,26.6955,-81.8138,1.49,30.81,2 
SCCF RECON,ioos:station:SCCF:18:1,2014-05-07T21:00:00Z,26.6955,-81.8138,1.49,30.98,2 
SCCF RECON,ioos:station:SCCF:18:1,2014-05-07T22:00:00Z,26.6955,-81.8138,1.49,31.05,2 
SCCF RECON,ioos:station:SCCF:18:1,2014-05-07T23:00:00Z,26.6955,-81.8138,1.49,30.6,2 
SCCF RECON,ioos:station:SCCF:18:1,2014-05-08T00:00:00Z,26.6955,-81.8138,1.49,30.47,2 
SCCF RECON,ioos:station:SCCF:18:1,2014-05-08T01:00:00Z,26.6955,-81.8138,1.49,30.3,2 
SCCF RECON,ioos:station:SCCF:18:1,2014-05-08T02:00:00Z,26.6955,-81.8138,1.49,30.31,2 
SCCF RECON,ioos:station:SCCF:18:1,2014-05-08T03:00:00Z,26.6955,-81.8138,1.49,30.0,2 
SCCF RECON,ioos:station:SCCF:18:1,2014-05-08T04:00:00Z,26.6955,-81.8138,1.49,30.07,2 
SCCF RECON,ioos:station:SCCF:18:1,2014-05-08T05:00:00Z,26.6955,-81.8138,1.49,30.26,2 
SCCF RECON,ioos:station:SCCF:18:1,2014-05-08T06:00:00Z,26.6955,-81.8138,1.49,31.02,2 
SCCF RECON,ioos:station:SCCF:18:1,2014-05-08T07:00:00Z,26.6955,-81.8138,1.49,30.72,2 
SCCF RECON,ioos:station:SCCF:18:1,2014-05-08T08:00:00Z,26.6955,-81.8138,1.49,30.13,2 
SCCF RECON,ioos:station:SCCF:18:1,2014-05-08T09:00:00Z,26.6955,-81.8138,1.49,29.68,2 
SCCF RECON,ioos:station:SCCF:18:1,2014-05-08T10:00:00Z,26.6955,-81.8138,1.49,29.63,2 
SCCF RECON,ioos:station:SCCF:18:1,2014-05-08T11:00:00Z,26.6955,-81.8138,1.49,29.61,2 
SCCF RECON,ioos:station:SCCF:18:1,2014-05-08T12:00:00Z,26.6955,-81.8138,1.49,29.56,2 
SCCF RECON,ioos:station:SCCF:18:1,2014-05-08T13:00:00Z,26.6955,-81.8138,1.49,28.49,2 
SCCF RECON,ioos:station:SCCF:18:1,2014-05-08T14:00:00Z,26.6955,-81.8138,1.49,29.53,2 
SCCF RECON,ioos:station:SCCF:18:1,2014-05-08T15:00:00Z,26.6955,-81.8138,1.49,29.24,2 
SCCF RECON,ioos:station:SCCF:18:1,2014-05-08T16:00:00Z,26.6955,-81.8138,1.49,29.28,2 
SCCF RECON,ioos:station:SCCF:18:1,2014-05-08T17:00:00Z,26.6955,-81.8138,1.49,29.22,2 
SCCF RECON,ioos:station:SCCF:18:1,2014-05-08T18:00:00Z,26.6955,-81.8138,1.49,29.53,2 
SCCF RECON,ioos:station:SCCF:18:1,2014-05-08T19:00:00Z,26.6955,-81.8138,1.49,30.37,2 
SCCF RECON,ioos:station:SCCF:18:1,2014-05-08T20:00:00Z,26.6955,-81.8138,1.49,30.61,2 
SCCF RECON,ioos:station:SCCF:18:1,2014-05-08T21:00:00Z,26.6955,-81.8138,1.49,31.19,2 
SCCF RECON,ioos:station:SCCF:18:1,2014-05-08T22:00:00Z,26.6955,-81.8138,1.49,31.27,2 
SCCF RECON,ioos:station:SCCF:18:1,2014-05-08T23:00:00Z,26.6955,-81.8138,1.49,31.03,2 
SCCF RECON,ioos:station:SCCF:18:1,2014-05-09T00:00:00Z,26.6955,-81.8138,1.49,30.8,2 
SCCF RECON,ioos:station:SCCF:18:1,2014-05-09T01:00:00Z,26.6955,-81.8138,1.49,30.09,2 
SCCF RECON,ioos:station:SCCF:18:1,2014-05-09T02:00:00Z,26.6955,-81.8138,1.49,29.89,2 
SCCF RECON,ioos:station:SCCF:18:1,2014-05-09T03:00:00Z,26.6955,-81.8138,1.49,29.79,2 
SCCF RECON,ioos:station:SCCF:18:1,2014-05-09T04:00:00Z,26.6955,-81.8138,1.49,29.55,2 
SCCF RECON,ioos:station:SCCF:18:1,2014-05-09T05:00:00Z,26.6955,-81.8138,1.49,29.26,2 
SCCF RECON,ioos:station:SCCF:18:1,2014-05-09T06:00:00Z,26.6955,-81.8138,1.49,29.93,2 
SCCF RECON,ioos:station:SCCF:18:1,2014-05-09T07:00:00Z,26.6955,-81.8138,1.49,30.61,2 
SCCF RECON,ioos:station:SCCF:18:1,2014-05-09T08:00:00Z,26.6955,-81.8138,1.49,30.81,2 
SCCF RECON,ioos:station:SCCF:18:1,2014-05-09T09:00:00Z,26.6955,-81.8138,1.49,30.63,2 
SCCF RECON,ioos:station:SCCF:18:1,2014-05-09T10:00:00Z,26.6955,-81.8138,1.49,30.6,2 
SCCF RECON,ioos:station:SCCF:18:1,2014-05-09T11:00:00Z,26.6955,-81.8138,1.49,29.84,2 
SCCF RECON,ioos:station:SCCF:18:1,2014-05-09T12:00:00Z,26.6955,-81.8138,1.49,29.69,2 
SCCF RECON,ioos:station:SCCF:18:1,2014-05-09T13:00:00Z,26.6955,-81.8138,1.49,29.74,2 
SCCF RECON,ioos:station:SCCF:18:1,2014-05-09T14:00:00Z,26.6955,-81.8138,1.49,28.58,2 
SCCF RECON,ioos:station:SCCF:18:1,2014-05-09T15:00:00Z,26.6955,-81.8138,1.49,30.06,2 
SCCF RECON,ioos:station:SCCF:18:1,2014-05-09T16:00:00Z,26.6955,-81.8138,1.49,29.54,2 
SCCF RECON,ioos:station:SCCF:18:1,2014-05-09T17:00:00Z,26.6955,-81.8138,1.49,29.89,2 
SCCF RECON,ioos:station:SCCF:18:1,2014-05-09T18:00:00Z,26.6955,-81.8138,1.49,30.04,2 
SCCF RECON,ioos:station:SCCF:18:1,2014-05-09T19:00:00Z,26.6955,-81.8138,1.49,30.02,2 
SCCF RECON,ioos:station:SCCF:18:1,2014-05-09T20:00:00Z,26.6955,-81.8138,1.49,30.85,2 
SCCF RECON,ioos:station:SCCF:18:1,2014-05-09T21:00:00Z,26.6955,-81.8138,1.49,31.94,2 
SCCF RECON,ioos:station:SCCF:18:1,2014-05-09T22:00:00Z,26.6955,-81.8138,1.49,31.83,2 
SCCF RECON,ioos:station:SCCF:18:1,2014-05-09T23:00:00Z,26.6955,-81.8138,1.49,31.44,2 
SCCF RECON,ioos:station:SCCF:18:1,2014-05-10T00:00:00Z,26.6955,-81.8138,1.49,31.16,2 
SCCF RECON,ioos:station:SCCF:18:1,2014-05-10T01:00:00Z,26.6955,-81.8138,1.49,31.31,2 
SCCF RECON,ioos:station:SCCF:18:1,2014-05-10T02:00:00Z,26.6955,-81.8138,1.49,30.03,2 
SCCF RECON,ioos:station:SCCF:18:1,2014-05-10T03:00:00Z,26.6955,-81.8138,1.49,30.36,2 
SCCF RECON,ioos:station:SCCF:18:1,2014-05-10T04:00:00Z,26.6955,-81.8138,1.49,30.43,2 
SCCF RECON,ioos:station:SCCF:18:1,2014-05-10T05:00:00Z,26.6955,-81.8138,1.49,30.06,2 
SCCF RECON,ioos:station:SCCF:18:1,2014-05-10T06:00:00Z,26.6955,-81.8138,1.49,29.94,2 
SCCF RECON,ioos:station:SCCF:18:1,2014-05-10T07:00:00Z,26.6955,-81.8138,1.49,30.12,2 
SCCF RECON,ioos:station:SCCF:18:1,2014-05-10T08:00:00Z,26.6955,-81.8138,1.49,30.53,2 
SCCF RECON,ioos:station:SCCF:18:1,2014-05-10T09:00:00Z,26.6955,-81.8138,1.49,30.99,2 
SCCF RECON,ioos:station:SCCF:18:1,2014-05-10T10:00:00Z,26.6955,-81.8138,1.49,30.51,2 
SCCF RECON,ioos:station:SCCF:18:1,2014-05-10T11:00:00Z,26.6955,-81.8138,1.49,29.98,2 
SCCF RECON,ioos:station:SCCF:18:1,2014-05-10T12:00:00Z,26.6955,-81.8138,1.49,29.83,2 
SCCF RECON,ioos:station:SCCF:18:1,2014-05-10T13:00:00Z,26.6955,-81.8138,1.49,29.94,2 
SCCF RECON,ioos:station:SCCF:18:1,2014-05-10T14:00:00Z,26.6955,-81.8138,1.49,29.09,2 
SCCF RECON,ioos:station:SCCF:18:1,2014-05-10T15:00:00Z,26.6955,-81.8138,1.49,29.2,2 
SCCF RECON,ioos:station:SCCF:18:1,2014-05-10T16:00:00Z,26.6955,-81.8138,1.49,29.56,2 
SCCF RECON,ioos:station:SCCF:18:1,2014-05-10T17:00:00Z,26.6955,-81.8138,1.49,29.71,2 
SCCF RECON,ioos:station:SCCF:18:1,2014-05-10T18:00:00Z,26.6955,-81.8138,1.49,29.8,2 
SCCF RECON,ioos:station:SCCF:18:1,2014-05-10T19:00:00Z,26.6955,-81.8138,1.49,30.18,2 
SCCF RECON,ioos:station:SCCF:18:1,2014-05-10T20:00:00Z,26.6955,-81.8138,1.49,30.46,2 
SCCF RECON,ioos:station:SCCF:18:1,2014-05-10T21:00:00Z,26.6955,-81.8138,1.49,29.78,2 
SCCF RECON,ioos:station:SCCF:18:1,2014-05-10T22:00:00Z,26.6955,-81.8138,1.49,31.57,2 
SCCF RECON,ioos:station:SCCF:18:1,2014-05-10T23:00:00Z,26.6955,-81.8138,1.49,30.53,2 
SCCF RECON,ioos:station:SCCF:18:1,2014-05-11T00:00:00Z,26.6955,-81.8138,1.49,30.48,2 
SCCF RECON,ioos:station:SCCF:18:1,2014-05-11T01:00:00Z,26.6955,-81.8138,1.49,29.72,2 
SCCF RECON,ioos:station:SCCF:18:1,2014-05-11T02:00:00Z,26.6955,-81.8138,1.49,29.93,2 
SCCF RECON,ioos:station:SCCF:18:1,2014-05-11T03:00:00Z,26.6955,-81.8138,1.49,29.91,2 
SCCF RECON,ioos:station:SCCF:18:1,2014-05-11T04:00:00Z,26.6955,-81.8138,1.49,29.58,2 
SCCF RECON,ioos:station:SCCF:18:1,2014-05-11T05:00:00Z,26.6955,-81.8138,1.49,29.65,2 
SCCF RECON,ioos:station:SCCF:18:1,2014-05-11T06:00:00Z,26.6955,-81.8138,1.49,29.7,2 
SCCF RECON,ioos:station:SCCF:18:1,2014-05-11T07:00:00Z,26.6955,-81.8138,1.49,29.98,2 
SCCF RECON,ioos:station:SCCF:18:1,2014-05-11T08:00:00Z,26.6955,-81.8138,1.49,29.4,2 
SCCF RECON,ioos:station:SCCF:18:1,2014-05-11T09:00:00Z,26.6955,-81.8138,1.49,30.19,2 
SCCF RECON,ioos:station:SCCF:18:1,2014-05-11T10:00:00Z,26.6955,-81.8138,1.49,30.68,2 
SCCF RECON,ioos:station:SCCF:18:1,2014-05-11T11:00:00Z,26.6955,-81.8138,1.49,30.68,2 
SCCF RECON,ioos:station:SCCF:18:1,2014-05-11T12:00:00Z,26.6955,-81.8138,1.49,30.36,2 
SCCF RECON,ioos:station:SCCF:18:1,2014-05-11T13:00:00Z,26.6955,-81.8138,1.49,29.69,2 
SCCF RECON,ioos:station:SCCF:18:1,2014-05-11T14:00:00Z,26.6955,-81.8138,1.49,29.85,2 
SCCF RECON,ioos:station:SCCF:18:1,2014-05-11T15:00:00Z,26.6955,-81.8138,1.49,30.12,2 
SCCF RECON,ioos:station:SCCF:18:1,2014-05-11T16:00:00Z,26.6955,-81.8138,1.49,29.55,2 
SCCF RECON,ioos:station:SCCF:18:1,2014-05-11T17:00:00Z,26.6955,-81.8138,1.49,29.84,2 
SCCF RECON,ioos:station:SCCF:18:1,2014-05-11T18:00:00Z,26.6955,-81.8138,1.49,30.04,2 
SCCF RECON,ioos:station:SCCF:18:1,2014-05-11T19:00:00Z,26.6955,-81.8138,1.49,30.42,2 
SCCF RECON,ioos:station:SCCF:18:1,2014-05-11T20:00:00Z,26.6955,-81.8138,1.49,31.02,2 
SCCF RECON,ioos:station:SCCF:18:1,2014-05-11T21:00:00Z,26.6955,-81.8138,1.49,31.42,2 
SCCF RECON,ioos:station:SCCF:18:1,2014-05-11T22:00:00Z,26.6955,-81.8138,1.49,31.24,2 
SCCF RECON,ioos:station:SCCF:18:1,2014-05-11T23:00:00Z,26.6955,-81.8138,1.49,31.24,2 
SCCF RECON,ioos:station:SCCF:18:1,2014-05-12T00:00:00Z,26.6955,-81.8138,1.49,31.01,2 
SCCF RECON,ioos:station:SCCF:18:1,2014-05-12T01:00:00Z,26.6955,-81.8138,1.49,31.41,2 
SCCF RECON,ioos:station:SCCF:18:1,2014-05-12T02:00:00Z,26.6955,-81.8138,1.49,30.99,2 
SCCF RECON,ioos:station:SCCF:18:1,2014-05-12T03:00:00Z,26.6955,-81.8138,1.49,30.35,2 
SCCF RECON,ioos:station:SCCF:18:1,2014-05-12T04:00:00Z,26.6955,-81.8138,1.49,30.37,2 
SCCF RECON,ioos:station:SCCF:18:1,2014-05-12T05:00:00Z,26.6955,-81.8138,1.49,29.33,2 
SCCF RECON,ioos:station:SCCF:18:1,2014-05-12T06:00:00Z,26.6955,-81.8138,1.49,29.66,2 
SCCF RECON,ioos:station:SCCF:18:1,2014-05-12T07:00:00Z,26.6955,-81.8138,1.49,29.5,2 
SCCF RECON,ioos:station:SCCF:18:1,2014-05-12T08:00:00Z,26.6955,-81.8138,1.49,29.52,2 
SCCF RECON,ioos:station:SCCF:18:1,2014-05-12T09:00:00Z,26.6955,-81.8138,1.49,29.45,2 
SCCF RECON,ioos:station:SCCF:18:1,2014-05-12T10:00:00Z,26.6955,-81.8138,1.49,30.08,2 
SCCF RECON,ioos:station:SCCF:18:1,2014-05-12T11:00:00Z,26.6955,-81.8138,1.49,30.26,2 
SCCF RECON,ioos:station:SCCF:18:1,2014-05-12T12:00:00Z,26.6955,-81.8138,1.49,29.88,2 
SCCF RECON,ioos:station:SCCF:18:1,2014-05-12T13:00:00Z,26.6955,-81.8138,1.49,30.12,2 